Sturgis, MI

3:41 PM EST on January 23, 2018 (GMT -0500)
Kirsch Municipal

Weather History for KIRS - December, 2012

Change the Weather History Date:

Wednesday, December 12, 2012

  Actual Average (KHAI) Record (KHAI)
Temperature  
Mean Temperature 32 °F -  
Max Temperature 41 °F 38 °F 62 °F (1949)
Min Temperature 24 °F 22 °F -13 °F (1962)
Degree Days  
Heating Degree Days 32    
Moisture  
Dew Point 23 °F    
Average Humidity 75    
Maximum Humidity 86    
Minimum Humidity 56    
Precipitation  
Precipitation 0.00 in - - ()
Sea Level Pressure  
Sea Level Pressure 30.27 in    
Wind  
Wind Speed 6 mph (SSW)    
Max Wind Speed 12 mph    
Max Gust Speed -    
Visibility 10 miles    
Events      
Averages and records for this station are not official NWS values.
T = Trace of Precipitation, MM = Missing Value Source: NWS Daily Summary

Daily Weather History Graph

Daily Weather History Graph

Search for Another Location

Airport or City:

Trip Planner

Search our weather history database for the weather conditions in past years. The results will help you decide how hot, cold, wet, or windy it might be!

Date:

Astronomy

Dec. 12, 2012 Rise Set
Actual Time 8:00 AM EST 5:11 PM EST
Civil Twilight 7:28 AM EST 5:42 PM EST
Nautical Twilight 6:53 AM EST 6:17 PM EST
Astronomical Twilight 6:19 AM EST 6:51 PM EST
Moon 7:03 AM EST (12/12) 4:47 PM EST (12/12)
Length of Visible Light 10h 13m
Length of Day
9h 10m
Waning Crescent, 1% of the Moon is Illuminated
Dec 12
Waning Crescent
Dec 13
New
Dec 20
First Quarter
Dec 28
Full
Jan 4
Last Quarter

Hourly Weather History & Observations

Time (EST) Temp. Windchill Dew Point Humidity Pressure Visibility Wind Dir Wind Speed Gust Speed Precip Events Conditions
12:15 AM 26.6 °F 20.0 °F 23.0 °F 86% 30.15 in 10.0 mi SW 5.8 mph - N/A   Clear
12:35 AM 24.8 °F 16.9 °F 21.2 °F 86% 30.15 in 10.0 mi SW 6.9 mph - N/A   Clear
12:54 AM 24.8 °F 20.5 °F 21.2 °F 86% 30.15 in 10.0 mi SW 3.5 mph - N/A   Clear
1:15 AM 24.8 °F 16.9 °F 21.2 °F 86% 30.15 in 10.0 mi SSW 6.9 mph - N/A   Clear
1:35 AM 24.8 °F 17.9 °F 21.2 °F 86% 30.16 in 10.0 mi SW 5.8 mph - N/A   Clear
1:55 AM 24.8 °F 19.1 °F 21.2 °F 86% 30.17 in 10.0 mi SW 4.6 mph - N/A   Clear
2:14 AM 24.8 °F 16.9 °F 21.2 °F 86% 30.17 in 10.0 mi SSW 6.9 mph - N/A   Clear
2:35 AM 24.8 °F 17.9 °F 21.2 °F 86% 30.18 in 10.0 mi SSW 5.8 mph - N/A   Clear
2:55 AM 24.8 °F 16.9 °F 21.2 °F 86% 30.19 in 10.0 mi SSW 6.9 mph - N/A   Clear
3:14 AM 24.8 °F 16.9 °F 21.2 °F 86% 30.20 in 10.0 mi SSW 6.9 mph - N/A   Clear
3:35 AM 24.8 °F 17.9 °F 21.2 °F 86% 30.20 in 10.0 mi SW 5.8 mph - N/A   Clear
3:55 AM 24.8 °F 16.9 °F 21.2 °F 86% 30.20 in 10.0 mi SSW 6.9 mph - N/A   Clear
4:14 AM 24.8 °F 17.9 °F 21.2 °F 86% 30.21 in 10.0 mi SW 5.8 mph - N/A   Clear
4:35 AM 24.8 °F 17.9 °F 21.2 °F 86% 30.21 in 10.0 mi SSW 5.8 mph - N/A   Clear
4:55 AM 24.8 °F 17.9 °F 21.2 °F 86% 30.21 in 10.0 mi SSW 5.8 mph - N/A   Clear
5:14 AM 24.8 °F 17.9 °F 21.2 °F 86% 30.21 in 10.0 mi South 5.8 mph - N/A   Clear
5:35 AM 24.8 °F 17.9 °F 21.2 °F 86% 30.22 in 10.0 mi SSW 5.8 mph - N/A   Clear
5:55 AM 24.8 °F 16.9 °F 21.2 °F 86% 30.22 in 10.0 mi SSW 6.9 mph - N/A   Clear
6:14 AM 24.8 °F 16.9 °F 21.2 °F 86% 30.23 in 10.0 mi SSW 6.9 mph - N/A   Clear
6:35 AM 24.8 °F 17.9 °F 21.2 °F 86% 30.24 in 10.0 mi SSW 5.8 mph - N/A   Clear
6:54 AM 24.8 °F 16.9 °F 21.2 °F 86% 30.24 in 10.0 mi SSW 6.9 mph - N/A   Clear
7:15 AM 24.8 °F 16.9 °F 21.2 °F 86% 30.25 in 10.0 mi SSW 6.9 mph - N/A   Clear
7:35 AM 24.8 °F 16.9 °F 21.2 °F 86% 30.25 in 10.0 mi SSW 6.9 mph - N/A   Clear
7:54 AM 24.8 °F 17.9 °F 21.2 °F 86% 30.25 in 10.0 mi SSW 5.8 mph - N/A   Clear
8:15 AM 24.8 °F 19.1 °F 21.2 °F 86% 30.26 in 10.0 mi SSW 4.6 mph - N/A   Clear
8:35 AM 24.8 °F 20.5 °F 21.2 °F 86% 30.27 in 7.0 mi SSW 3.5 mph - N/A   Clear
8:54 AM 24.8 °F 20.5 °F 21.2 °F 86% 30.28 in 10.0 mi SW 3.5 mph - N/A   Clear
9:15 AM 26.6 °F 21.2 °F 23.0 °F 86% 30.29 in 10.0 mi SSW 4.6 mph - N/A   Clear
9:35 AM 28.4 °F 21.2 °F 23.0 °F 80% 30.30 in 10.0 mi SSW 6.9 mph - N/A   Clear
9:54 AM 28.4 °F 21.2 °F 24.8 °F 86% 30.31 in 10.0 mi SW 6.9 mph - N/A   Clear
10:15 AM 30.2 °F 23.4 °F 24.8 °F 80% 30.31 in 10.0 mi SW 6.9 mph - N/A   Clear
10:35 AM 32.0 °F 26.4 °F 24.8 °F 75% 30.32 in 10.0 mi SW 5.8 mph - N/A   Clear
10:54 AM 33.8 °F 28.6 °F 26.6 °F 75% 30.33 in 10.0 mi SW 5.8 mph - N/A   Clear
11:15 AM 33.8 °F 28.6 °F 26.6 °F 75% 30.33 in 10.0 mi SW 5.8 mph - N/A   Clear
11:34 AM 35.6 °F 29.9 °F 26.6 °F 70% 30.33 in 10.0 mi SW 6.9 mph - N/A   Clear
11:55 AM 37.4 °F 30.8 °F 26.6 °F 65% 30.32 in 10.0 mi SW 9.2 mph - N/A   Clear
12:15 PM 37.4 °F 31.4 °F 26.6 °F 65% 30.32 in 10.0 mi SSW 8.1 mph - N/A   Clear
12:34 PM 37.4 °F 31.4 °F 26.6 °F 65% 30.32 in 10.0 mi SW 8.1 mph - N/A   Clear
12:55 PM 39.2 °F 33.0 °F 26.6 °F 61% 30.31 in 10.0 mi SW 9.2 mph - N/A   Clear
1:15 PM 39.2 °F 32.5 °F 26.6 °F 61% 30.31 in 10.0 mi SSW 10.4 mph - N/A   Clear
1:35 PM 39.2 °F 33.0 °F 26.6 °F 61% 30.31 in 10.0 mi SW 9.2 mph - N/A   Clear
1:55 PM 39.2 °F 33.0 °F 26.6 °F 61% 30.30 in 10.0 mi SW 9.2 mph - N/A   Clear
2:14 PM 39.2 °F 32.0 °F 24.8 °F 56% 30.30 in 10.0 mi SW 11.5 mph - N/A   Clear
2:35 PM 39.2 °F 32.5 °F 24.8 °F 56% 30.30 in 10.0 mi SSW 10.4 mph - N/A   Clear
2:54 PM 41.0 °F 35.2 °F 26.6 °F 57% 30.29 in 10.0 mi SSW 9.2 mph - N/A   Clear
3:15 PM 41.0 °F 34.7 °F 26.6 °F 57% 30.29 in 10.0 mi SSW 10.4 mph - N/A   Clear
3:35 PM 39.2 °F 34.2 °F 24.8 °F 56% 30.29 in 10.0 mi SSW 6.9 mph - N/A   Clear
3:55 PM 39.2 °F 32.5 °F 24.8 °F 56% 30.29 in 10.0 mi SW 10.4 mph - N/A   Clear
4:14 PM 39.2 °F 33.6 °F 26.6 °F 61% 30.30 in 10.0 mi SW 8.1 mph - N/A   Clear
4:35 PM 37.4 °F 32.8 °F 26.6 °F 65% 30.30 in 10.0 mi SSW 5.8 mph - N/A   Clear
4:55 PM 37.4 °F 32.8 °F 24.8 °F 60% 30.30 in 10.0 mi South 5.8 mph - N/A   Clear
5:15 PM 35.6 °F 30.7 °F 24.8 °F 65% 30.30 in 10.0 mi South 5.8 mph - N/A   Clear
5:35 PM 33.8 °F 28.6 °F 24.8 °F 70% 30.30 in 10.0 mi South 5.8 mph - N/A   Clear
5:55 PM 33.8 °F 28.6 °F 24.8 °F 70% 30.31 in 10.0 mi South 5.8 mph - N/A   Clear
6:14 PM 33.8 °F 30.8 °F 24.8 °F 70% 30.31 in 10.0 mi South 3.5 mph - N/A   Clear
6:35 PM 33.8 °F 28.6 °F 24.8 °F 70% 30.31 in 10.0 mi South 5.8 mph - N/A   Clear
7:14 PM 33.8 °F 28.6 °F 24.8 °F 70% 30.31 in 10.0 mi South 5.8 mph - N/A   Clear
7:35 PM 32.0 °F 26.4 °F 24.8 °F 75% 30.32 in 10.0 mi South 5.8 mph - N/A   Clear
7:55 PM 32.0 °F 27.5 °F 23.0 °F 69% 30.32 in 10.0 mi SSE 4.6 mph - N/A   Clear
8:14 PM 32.0 °F 26.4 °F 23.0 °F 69% 30.32 in 10.0 mi SSE 5.8 mph - N/A   Clear
8:35 PM 32.0 °F 25.6 °F 23.0 °F 69% 30.32 in 10.0 mi South 6.9 mph - N/A   Clear
8:55 PM 30.2 °F 24.3 °F 23.0 °F 75% 30.33 in 10.0 mi South 5.8 mph - N/A   Clear
9:14 PM 30.2 °F 25.4 °F 23.0 °F 75% 30.33 in 10.0 mi South 4.6 mph - N/A   Clear
9:35 PM 30.2 °F 24.3 °F 23.0 °F 75% 30.34 in 10.0 mi South 5.8 mph - N/A   Clear
9:55 PM 30.2 °F 25.4 °F 23.0 °F 75% 30.33 in 10.0 mi South 4.6 mph - N/A   Clear
10:15 PM 30.2 °F 24.3 °F 23.0 °F 75% 30.33 in 10.0 mi South 5.8 mph - N/A   Clear
10:35 PM 30.2 °F 24.3 °F 23.0 °F 75% 30.33 in 10.0 mi South 5.8 mph - N/A   Clear
10:54 PM 30.2 °F 23.4 °F 23.0 °F 75% 30.33 in 10.0 mi South 6.9 mph - N/A   Clear
11:15 PM 30.2 °F 24.3 °F 23.0 °F 75% 30.33 in 10.0 mi South 5.8 mph - N/A   Clear
11:35 PM 30.2 °F 23.4 °F 23.0 °F 75% 30.32 in 10.0 mi South 6.9 mph - N/A   Clear
11:54 PM 30.2 °F 23.4 °F 23.0 °F 75% 30.32 in 10.0 mi South 6.9 mph - N/A   Clear